Flag for U.S.A. Weather past 2 weeks in Paterson, New Jersey, U.S.A.

Now
26 °F

Clear.


Feels Like: 18 °F
Forecast: 10 / 22 °F
Wind: 7 mph from Northwest

Location: Essex County Airport

Current Time: Feb 27, 2015 at 6:16:24 PM

Latest Report: Feb 27, 2015 at 5:53 PM


Visibility: 10 mi

Pressure: 30.49 "Hg

Humidity: 35%

Dew point: 2 °F

Location of PatersonLocation

Historic Weather in Paterson — Graph

°F

Paterson temperature yesterday

Maximum temperature yesterday: 26 °F (at 1:53 AM)
Minimum temperature yesterday: 18 °F (at 11:53 PM)
Average temperature yesterday: 22 °F

Past Weeks' High & Low Weather Summary

 TemperatureHumidityPressure
High44 °F (Feb 22, 2:53 PM)96% (Feb 14, 5:53 PM)30.54 "Hg (Feb 14, 5:53 PM)
Low-3 °F (Feb 24, 4:53 AM)24% (Feb 16, 12:53 PM)29.49 "Hg (Feb 14, 11:53 PM)
Average17 °F55%30.08 "Hg
* Reported Feb 12 4:53 PM — Feb 27 4:53 PM, Paterson, Weather by CustomWeather, © 2015

Note: Actual official high and low records may vary slightly from our data, if they occured in-between our weather recording intervals... More about our weather records

Advertising

Paterson weather history for previous 24 hours

 ConditionsComfort  
Time TempWeatherWind HumidityBarometerVisibility
4:53 PM
Fri, Feb 27
28 °FSunny.8 mph32%30.45 "Hg10 mi
3:53 PM28 °FSunny.10 mph32%30.43 "Hg10 mi
2:53 PM28 °FSunny.12 mph34%30.42 "Hg10 mi
1:53 PM27 °FSunny.6 mph32%30.40 "Hg10 mi
12:53 PM25 °FSunny.3 mph35%30.41 "Hg10 mi
11:53 AM24 °FSunny.7 mph40%30.42 "Hg10 mi
10:53 AM22 °FSunny.5 mph44%30.43 "Hg10 mi
9:53 AM20 °FSunny.3 mph48%30.42 "Hg10 mi
8:53 AM17 °FSunny.3 mph54%30.42 "Hg10 mi
7:53 AM16 °FPassing clouds.3 mph56%30.39 "Hg10 mi
6:53 AM15 °FPartly sunny.No wind64%30.36 "Hg10 mi
5:53 AM15 °FOvercast.No wind67%30.33 "Hg10 mi
4:53 AM13 °FClear.No wind70%30.29 "Hg10 mi
3:53 AM14 °FClear.No wind71%30.27 "Hg10 mi
2:53 AM13 °FPassing clouds.No wind74%30.24 "Hg10 mi
1:53 AM15 °FClear.No wind67%30.23 "Hg10 mi
12:53 AM16 °FPassing clouds.No wind67%30.20 "Hg10 mi
11:53 PM
Thu, Feb 26
18 °FPassing clouds.3 mph65%30.19 "Hg10 mi
10:53 PM19 °FClear.No wind65%30.18 "Hg10 mi
9:53 PM20 °FClear.No wind65%30.16 "Hg10 mi
8:53 PM22 °FClear.No wind60%30.14 "Hg10 mi
7:53 PM23 °FPassing clouds.3 mph60%30.11 "Hg10 mi
6:53 PM23 °FOvercast.No wind60%30.08 "Hg10 mi
Weather by CustomWeather, © 2015

See weather overviewHow to use our weather pages